McComb, MS

4:35 PM CDT on August 19, 2017 (GMT -0500)
McComb-Pike County-Lewis

Weather History for KMCB - January, 2015

Change the Weather History Date:

Thursday, January 29, 2015

  Actual Average Record
Temperature  
Mean Temperature 56 °F -  
Max Temperature 75 °F 63 °F 81 °F (1950)
Min Temperature 37 °F 40 °F 13 °F (1966)
Degree Days  
Heating Degree Days 9    
Growing Degree Days 6 (Base 50)    
Moisture  
Dew Point 47 °F    
Average Humidity 71    
Maximum Humidity 93    
Minimum Humidity 37    
Precipitation  
Precipitation 0.00 in - - ()
Sea Level Pressure  
Sea Level Pressure 30.21 in    
Wind  
Wind Speed 4 mph (WSW)    
Max Wind Speed 14 mph    
Max Gust Speed 22 mph    
Visibility 9 miles    
Events      
Averages and records for this station are not official NWS values.
T = Trace of Precipitation, MM = Missing Value Source: NWS Daily Summary

Daily Weather History Graph

Daily Weather History Graph

Search for Another Location

Airport or City:

Trip Planner

Search our weather history database for the weather conditions in past years. The results will help you decide how hot, cold, wet, or windy it might be!

Date:

Astronomy

Jan. 29, 2015 Rise Set
Actual Time 6:55 AM CST 5:34 PM CST
Civil Twilight 6:30 AM CST 5:59 PM CST
Nautical Twilight 6:01 AM CST 6:29 PM CST
Astronomical Twilight 5:32 AM CST 6:57 PM CST
Moon 1:23 PM CST (1/29) 2:27 AM CST (1/29)
Length of Visible Light 11h 29m
Length of Day
10h 38m
Waxing Gibbous, 76% of the Moon is Illuminated
Jan 29
Waxing Gibbous
Feb 3
Full
Feb 11
Last Quarter
Feb 18
New
Feb 25
First Quarter

Hourly Weather History & Observations

Time (CST) Temp. Windchill Dew Point Humidity Pressure Visibility Wind Dir Wind Speed Gust Speed Precip Events Conditions
12:53 AM 46.0 °F - 39.9 °F 79% 30.21 in 10.0 mi Calm Calm - N/A   Clear
1:53 AM 44.1 °F - 39.0 °F 82% 30.21 in 10.0 mi Calm Calm - N/A   Clear
2:53 AM 44.1 °F - 39.9 °F 85% 30.21 in 10.0 mi Calm Calm - N/A   Clear
3:53 AM 37.9 °F 33.5 °F 36.0 °F 93% 30.20 in 9.0 mi SSE 5.8 mph - N/A   Clear
4:53 AM 45.0 °F - 41.0 °F 86% 30.19 in 7.0 mi Calm Calm - N/A   Clear
5:53 AM 46.0 °F - 43.0 °F 89% 30.20 in 5.0 mi Calm Calm - N/A   Clear
6:53 AM 43.0 °F - 39.9 °F 89% 30.22 in 5.0 mi Calm Calm - N/A   Clear
7:53 AM 45.0 °F - 43.0 °F 93% 30.22 in 3.0 mi Calm Calm - N/A   Scattered Clouds
8:06 AM 46.9 °F - 45.0 °F 93% 30.23 in 2.5 mi Calm Calm - N/A   Scattered Clouds
8:12 AM 48.0 °F - 46.0 °F 93% 30.24 in 3.0 mi Calm Calm - N/A   Mostly Cloudy
8:43 AM 51.1 °F - 48.9 °F 92% 30.24 in 6.0 mi South 6.9 mph - N/A   Scattered Clouds
8:53 AM 52.0 °F - 48.9 °F 89% 30.24 in 9.0 mi South 5.8 mph - N/A   Scattered Clouds
9:03 AM 55.0 °F - 50.0 °F 83% 30.25 in 10.0 mi Variable 4.6 mph - N/A   Mostly Cloudy
9:53 AM 59.0 °F - 52.0 °F 78% 30.26 in 10.0 mi SW 5.8 mph - N/A   Overcast
10:53 AM 66.0 °F - 55.0 °F 68% 30.25 in 10.0 mi SSW 11.5 mph - N/A   Scattered Clouds
11:53 AM 70.0 °F - 55.9 °F 61% 30.22 in 10.0 mi SW 13.8 mph 20.7 mph N/A   Clear
12:53 PM 73.0 °F - 54.0 °F 51% 30.18 in 10.0 mi WSW 11.5 mph - N/A   Clear
1:53 PM 75.0 °F - 52.0 °F 44% 30.16 in 10.0 mi WSW 12.7 mph - N/A   Clear
2:53 PM 75.9 °F - 48.0 °F 37% 30.14 in 10.0 mi SW 8.1 mph - N/A   Clear
3:53 PM 75.0 °F - 48.9 °F 40% 30.15 in 10.0 mi SW 11.5 mph - N/A   Clear
4:53 PM 73.0 °F - 46.9 °F 39% 30.15 in 10.0 mi SW 9.2 mph - N/A   Clear
5:53 PM 69.1 °F - 48.0 °F 47% 30.17 in 10.0 mi West 5.8 mph - N/A   Scattered Clouds
6:53 PM 66.0 °F - 48.9 °F 54% 30.19 in 10.0 mi WNW 5.8 mph - N/A   Partly Cloudy
7:53 PM 62.1 °F - 48.9 °F 62% 30.21 in 10.0 mi WNW 4.6 mph - N/A   Partly Cloudy
8:53 PM 57.9 °F - 48.9 °F 72% 30.22 in 10.0 mi NW 4.6 mph - N/A   Clear
9:53 PM 59.0 °F - 50.0 °F 72% 30.22 in 10.0 mi NW 4.6 mph - N/A   Mostly Cloudy
10:53 PM 61.0 °F - 48.0 °F 62% 30.24 in 10.0 mi North 13.8 mph - N/A   Clear
11:53 PM 57.9 °F - 44.1 °F 60% 30.27 in 10.0 mi North 11.5 mph 21.9 mph N/A   Clear